Theta_e
302 302 302 303 303 303 302 301 301 301 301 301 302 302 302 303 303 304 304 305 306 307 307 307 307 309 310 312 317 316 318 318 321 319 322 324 325 326 327 329 331 332 332 334 337 336 336 333 333 336 337 337 334 335
301 302 302 302 302 302 302 303 303 302 302 302 301 301 302 304 304 303 305 305 306 307 307 305 305 306 308 309 311 312 317 321 321 319 319 322 324 325 328 329 331 334 331 332 331 333 333 333 333 333 334 337 336 335
301 301 301 302 301 301 301 301 302 302 302 302 302 302 302 302 302 303 304 305 305 307 306 306 307 306 305 304 307 312 315 315 319 317 320 323 324 325 327 327 330 331 331 332 334 332 332 334 334 336 337 334 334 336
302 301 301 301 301 301 302 302 302 301 302 302 303 303 303 303 303 302 304 305 304 305 305 306 307 307 308 308 306 307 310 312 314 316 318 323 325 324 325 326 328 330 332 334 334 333 333 333 336 336 338 340 341 340
304 303 302 301 301 302 303 302 302 302 302 303 304 305 305 304 303 304 305 305 304 304 306 307 306 306 307 308 308 308 309 311 315 316 319 322 325 326 326 326 326 327 331 333 334 334 337 338 335 335 335 336 338 342
304 305 304 302 302 302 303 302 302 302 303 303 304 305 306 306 305 306 309 307 305 304 304 308 309 311 311 309 309 309 310 313 314 317 319 321 323 328 328 329 330 327 328 330 336 341 344 342 337 347 343 339 340 343
304 305 305 304 303 302 302 302 302 302 303 305 305 306 306 306 306 307 309 307 305 303 304 307 311 312 311 310 310 311 313 313 314 316 319 322 324 326 330 330 330 329 334 335 336 340 345 345 345 344 346 344 343 345
304 304 305 305 304 303 303 303 303 303 305 306 306 306 305 305 305 307 307 305 305 305 305 309 311 311 310 312 315 316 316 315 313 318 322 324 324 327 328 327 328 328 339 341 339 337 339 345 348 348 347 346 348 350
304 304 304 304 305 304 304 304 304 305 306 306 306 306 305 306 307 308 307 304 304 305 308 309 313 312 311 312 317 317 314 315 317 323 324 326 327 328 328 329 329 336 341 342 343 344 341 339 343 348 348 349 351 352
305 304 304 305 305 305 305 305 306 307 306 306 305 308 311 309 306 306 305 304 305 306 306 310 309 310 312 314 315 318 319 321 324 324 324 327 327 325 328 330 340 340 342 343 344 342 343 341 344 348 349 349 350 351
305 305 305 305 305 306 307 307 307 307 306 307 310 311 307 306 307 306 307 308 307 310 310 313 313 318 315 319 318 315 321 321 326 326 327 325 324 327 337 338 338 340 343 344 344 344 345 342 345 348 348 348 350 349
306 305 306 307 308 308 308 308 307 307 311 309 308 307 307 307 309 306 308 306 309 315 316 318 318 319 317 320 320 319 324 323 327 326 327 328 328 335 336 335 337 336 341 343 343 344 344 345 344 346 347 347 347 346
306 307 308 308 309 309 309 309 309 308 307 309 310 312 315 314 309 310 315 312 313 312 317 318 320 322 322 322 323 326 325 325 324 328 329 328 336 334 335 334 333 335 338 341 343 344 344 344 343 344 345 345 342 342
309 309 309 309 310 309 309 309 309 310 312 316 316 315 310 312 310 309 311 312 311 312 315 317 323 325 324 323 324 324 324 321 326 329 329 336 333 333 334 332 333 335 336 338 339 341 342 343 342 340 338 338 338 339
311 311 311 311 310 310 310 311 312 313 315 316 313 317 310 310 314 317 318 319 318 320 320 322 325 326 325 325 324 324 324 326 326 327 331 332 331 333 333 332 329 331 333 335 336 337 335 333 333 333 333 334 333 329
313 315 314 312 311 312 312 315 316 315 316 318 318 319 319 319 321 320 319 322 321 324 324 324 324 324 325 327 325 326 326 327 326 325 328 328 330 332 332 331 331 329 331 333 333 332 331 331 331 331 329 329 329 328
315 317 314 312 312 315 316 317 317 319 319 319 321 322 322 321 319 320 320 321 319 319 322 321 321 320 321 325 326 324 327 329 327 324 325 328 328 330 332 333 331 330 330 331 330 329 329 329 329 328 328 327 325 325
318 316 314 312 313 316 318 317 318 318 318 320 320 319 319 320 321 321 322 322 322 322 321 320 318 319 317 316 322 322 322 322 322 320 321 322 324 328 329 327 327 328 328 327 328 327 327 327 327 327 325 324 323 323
313 313 314 313 313 316 319 318 320 319 319 319 318 318 320 320 319 319 320 320 319 319 322 321 321 321 320 319 320 320 320 320 320 320 319 319 320 324 325 326 325 326 326 328 329 329 327 326 325 324 323 323 323 322
315 316 314 316 317 320 319 319 319 321 319 319 319 319 319 319 320 319 319 320 320 319 320 321 322 321 321 321 320 318 318 317 319 319 318 317 317 318 319 322 324 323 322 321 321 324 324 323 322 322 323 322 321 320
319 318 317 320 320 318 319 320 318 319 320 319 318 319 318 318 319 320 320 318 319 320 322 323 323 324 321 319 319 318 317 316 318 318 318 317 316 316 317 316 316 317 317 316 317 316 317 318 318 318 318 318 317 317
320 316 321 321 320 319 318 318 319 320 321 318 318 318 319 320 319 318 318 320 320 323 323 322 319 318 319 321 324 319 318 316 316 317 317 317 318 317 317 317 316 316 315 315 315 315 314 314 314 315 317 317 317 317
318 319 323 322 321 321 321 320 319 318 318 318 317 318 319 319 318 318 319 319 319 319 319 319 320 318 320 316 317 318 319 320 321 319 319 319 317 316 317 317 318 319 318 316 316 317 317 315 315 315 314 315 316 315
318 322 324 319 319 321 320 319 318 318 318 317 317 318 320 319 317 318 318 318 317 317 318 318 316 317 316 318 316 316 316 316 315 318 319 319 321 320 319 319 319 319 319 319 319 319 318 317 315 316 316 316 316 316
323 323 323 322 319 318 317 318 318 318 318 318 318 318 319 318 318 318 319 317 317 318 318 317 317 316 316 316 316 315 314 314 315 316 315 315 315 315 315 315 315 315 316 315 317 319 320 319 318 318 317 317 317 317
321 322 327 321 320 319 318 317 317 318 318 318 318 318 318 317 317 317 317 317 317 318 317 317 316 316 315 314 315 315 313 313 313 315 315 314 314 314 316 316 316 315 314 314 314 315 315 315 315 316 314 316 315 314
323 323 322 321 320 320 320 318 317 317 316 318 318 318 318 318 317 317 317 316 317 316 315 315 315 315 315 314 313 312 311 311 312 312 312 314 313 311 311 312 313 310 310 312 313 312 313 313 313 314 314 314 314 315
325 325 325 323 322 320 320 319 318 317 317 318 318 319 318 318 318 317 317 315 316 316 315 315 314 314 314 313 313 312 310 309 308 309 310 311 310 310 309 308 308 306 307 307 307 308 309 310 311 311 312 312 312 312
326 324 324 323 323 321 320 319 319 318 318 319 319 319 319 318 318 318 317 316 315 316 315 315 314 314 314 313 312 310 309 307 307 309 309 308 308 307 306 306 306 306 306 306 306 307 307 307 307 307 308 309 309 310
325 324 325 324 323 322 321 321 321 321 320 319 319 319 319 318 318 317 317 318 317 317 315 315 314 314 313 312 310 308 308 307 306 306 306 306 304 303 303 304 304 304 304 305 305 306 306 307 307 307 307 308 308 308
324 324 323 322 322 322 322 322 321 321 321 320 319 319 319 319 319 319 318 318 317 316 316 314 314 313 311 310 309 308 308 307 306 305 303 303 303 301 300 300 302 303 303 303 303 303 304 304 304 304 305 305 304 304
324 323 322 323 321 321 322 322 322 322 321 320 320 320 320 320 320 320 317 317 316 314 313 314 313 311 310 309 308 307 306 307 306 305 304 303 302 301 298 300 301 301 301 302 302 302 302 302 302 302 302 302 302 302
324 323 323 322 321 322 322 321 321 321 321 320 320 320 320 320 321 318 315 316 315 315 314 312 311 310 309 309 308 308 306 305 304 304 302 301 298 297 298 299 299 299 299 299 299 300 300 300 300 299 299 299 300 300
Wind_Speed
20 19 19 19 19 19 19 18 17 16 14 13 13 12 11 11 10 10 16 11 8 5 13 15 16 15 9 7 10 11 6 10 7 15 15 13 12 14 19 22 23 17 16 15 18 16 17 17 16 23 12 14 13 20
20 19 19 19 20 19 18 17 16 15 14 14 13 13 14 14 13 11 17 8 8 5 11 23 23 22 21 15 11 10 10 10 4 7 12 12 11 14 15 15 22 19 19 14 15 17 2 14 14 15 17 15 16 17
21 20 22 21 21 20 19 19 18 17 16 16 15 14 15 15 13 12 16 13 13 10 13 17 15 23 26 28 22 11 7 4 5 7 7 7 17 14 14 16 16 19 19 17 14 16 18 9 11 4 5 12 10 14
22 21 22 23 22 22 20 20 20 19 18 17 17 19 17 17 15 15 16 14 11 9 7 12 4 8 8 15 24 24 16 13 12 8 7 7 9 17 14 15 17 10 15 16 20 14 15 15 14 10 10 8 9 11
23 22 22 24 23 23 22 21 20 20 21 20 19 20 22 20 20 17 19 19 16 11 7 9 24 20 18 14 16 20 18 11 8 8 7 8 10 9 12 12 15 18 14 13 10 13 14 11 19 19 15 15 10 10
23 23 23 24 25 24 23 23 22 21 22 23 22 23 20 17 13 9 4 12 19 13 1 4 4 8 12 17 12 14 11 8 8 8 7 9 20 8 8 12 15 17 21 6 3 4 9 13 7 7 12 13 9 8
25 24 24 23 23 25 25 24 24 24 24 20 22 20 18 12 12 7 2 5 16 12 2 3 3 4 11 13 8 7 11 4 5 8 11 12 11 6 12 12 17 15 3 5 7 6 8 11 8 10 10 8 3 7
26 26 25 23 22 24 25 25 25 25 20 23 21 18 8 9 9 11 15 11 15 4 3 3 2 3 5 9 7 5 4 1 3 7 8 11 11 10 12 17 20 14 2 7 10 11 13 9 7 9 8 7 9 10
27 26 25 23 22 23 23 25 23 20 25 21 13 4 11 5 6 4 7 19 14 3 2 3 2 2 10 8 4 3 2 2 4 6 11 8 12 13 12 15 17 4 3 10 8 10 13 15 9 7 7 9 11 12
27 25 24 23 21 22 21 19 21 24 23 7 10 4 3 6 8 14 6 3 3 3 3 4 4 4 9 8 5 5 6 4 4 9 7 10 13 18 8 10 5 7 11 12 13 13 13 14 11 9 9 9 10 11
28 26 24 22 19 17 20 23 21 20 1 4 5 1 7 14 5 1 1 3 3 4 4 5 8 5 9 7 6 4 1 3 4 7 9 7 14 18 6 4 6 10 14 13 14 13 13 12 11 9 9 8 10 11
29 26 20 15 18 26 24 21 17 6 4 2 5 1 6 3 2 2 2 2 4 3 3 3 3 3 5 2 3 6 5 4 2 2 5 7 7 6 6 2 7 9 14 12 11 13 13 13 8 10 9 9 10 13
29 19 13 17 27 30 24 19 16 10 2 3 3 3 2 3 1 2 2 2 3 2 3 4 5 5 5 7 4 4 5 1 2 3 4 1 5 3 4 5 5 8 10 9 7 8 7 7 8 9 10 14 15 17
26 14 13 19 32 23 20 19 15 4 2 2 5 5 5 4 2 4 3 3 3 4 7 4 4 4 4 5 3 3 2 2 3 3 3 5 5 1 3 1 3 5 7 6 4 0 6 8 10 12 13 14 16 17
20 13 14 22 24 19 17 13 14 5 5 4 2 5 3 6 4 3 1 1 2 5 7 4 4 3 5 4 3 2 4 3 4 3 3 3 4 3 3 3 3 5 6 4 5 7 11 12 11 12 14 17 20 24
15 8 11 26 18 16 17 11 8 6 3 3 4 4 5 12 10 8 7 6 7 4 2 2 3 1 2 6 2 2 2 1 3 5 8 9 7 6 2 4 3 2 2 5 7 11 13 11 10 14 18 19 22 23
8 7 21 17 15 15 18 9 5 3 4 4 6 9 8 6 10 7 4 8 9 7 4 4 5 4 6 6 7 8 5 6 6 7 6 8 4 3 2 9 6 7 6 9 14 18 16 15 18 17 11 16 21 21
4 15 18 16 15 10 9 11 6 5 10 9 9 10 11 11 7 9 7 4 4 4 4 5 2 6 4 5 5 4 4 5 5 5 5 7 7 6 9 8 8 10 11 14 15 19 20 17 13 11 19 22 22 19
16 16 17 15 9 5 5 7 7 4 9 5 9 11 9 8 12 9 8 7 11 6 2 2 4 2 1 3 7 6 7 6 3 5 6 9 14 9 10 13 12 13 13 10 11 11 14 14 14 17 20 21 17 18
8 8 17 8 9 4 3 3 3 3 6 8 8 11 11 12 10 10 10 11 8 8 6 5 6 4 3 4 7 8 9 9 5 7 9 9 14 17 16 11 10 16 16 17 17 17 16 14 12 12 13 13 14 13
6 6 8 6 4 8 4 4 4 3 4 3 7 11 6 9 12 11 9 10 10 13 10 7 8 7 9 10 10 11 8 9 10 10 8 10 15 20 17 19 17 17 14 12 8 12 15 12 12 13 15 13 13 12
5 11 3 4 3 1 4 4 4 3 3 5 8 7 8 10 11 12 9 8 11 7 8 10 11 11 12 14 9 16 19 21 19 16 15 12 8 8 7 14 13 9 14 11 11 9 12 13 16 14 11 9 12 11
7 5 1 1 1 2 0 4 1 3 2 4 4 8 7 5 8 10 8 9 10 11 13 5 4 18 12 19 22 26 15 13 10 10 10 14 16 13 8 7 6 9 5 4 9 7 5 6 7 7 5 4 6 7
6 3 3 3 3 1 2 1 1 1 2 1 3 7 6 6 8 7 10 10 9 10 4 10 14 10 11 14 12 13 16 22 19 12 13 8 5 4 3 11 10 6 5 6 9 8 8 6 6 5 2 4 3 5
3 3 1 4 1 1 2 3 4 2 3 3 7 4 3 3 3 9 10 6 7 8 8 10 11 10 10 11 12 18 23 20 14 9 16 16 10 13 21 23 20 14 12 7 9 4 4 3 3 6 11 11 10 10
1 1 1 4 2 3 4 4 3 3 4 3 3 1 2 2 5 3 4 5 6 6 5 8 8 7 9 15 10 13 20 22 19 12 11 14 15 15 10 5 3 11 17 14 13 11 5 9 11 10 6 12 2 8
2 1 2 1 3 2 2 3 2 3 3 3 2 3 2 3 2 2 5 6 5 8 10 11 12 13 12 15 16 18 19 20 19 19 17 11 8 10 14 14 12 14 18 17 14 16 17 16 15 14 14 9 7 12
4 4 1 3 2 1 2 2 2 2 2 1 1 4 4 3 3 3 5 3 5 6 7 9 10 11 13 14 15 15 16 18 19 19 18 14 18 17 15 15 14 14 14 13 13 15 15 15 14 15 16 16 15 16
2 3 3 2 3 2 2 1 1 3 1 2 3 2 1 2 2 0 2 4 5 7 7 11 15 15 16 17 16 19 16 17 18 16 17 11 13 19 20 18 18 18 17 16 15 13 9 12 14 15 17 18 19 19
2 1 2 2 2 2 1 3 3 3 2 4 4 3 3 2 5 2 4 4 4 13 15 12 17 16 16 13 16 16 14 14 17 17 12 11 17 22 21 20 19 17 16 16 16 16 16 13 16 15 15 14 13 14
1 2 1 1 2 2 2 2 4 2 4 3 2 4 3 3 6 4 2 5 4 6 6 6 8 12 11 13 11 11 13 13 13 15 16 19 22 23 24 20 18 17 16 15 15 16 11 10 12 13 14 16 15 14
2 1 1 2 3 3 1 2 3 3 2 2 3 5 2 5 4 2 3 3 7 3 2 6 8 9 11 14 12 11 8 13 14 17 15 19 21 23 23 19 18 17 18 18 17 16 17 15 13 12 11 12 13 14
1 1 2 3 1 2 3 3 1 3 2 1 4 6 5 6 6 4 3 5 3 3 8 8 9 12 11 8 7 9 9 10 12 12 8 12 16 18 15 16 17 18 18 19 20 18 18 16 12 12 13 14 12 11
Wind_Direction
326 329 335 336 335 332 330 329 328 322 318 307 301 298 290 290 287 294 291 272 235 268 286 279 294 277 264 262 282 340 270 224 232 223 235 221 221 200 218 190 184 202 194 207 215 211 224 231 212 200 203 235 250 214
314 318 322 329 329 329 330 326 322 320 316 312 308 298 288 282 278 276 277 299 283 224 278 296 283 278 282 283 274 281 313 301 342 222 231 244 233 215 213 207 176 207 209 213 216 221 317 252 244 239 204 210 236 254
308 309 309 315 319 320 319 316 317 313 310 308 298 295 292 287 277 259 276 283 282 271 267 245 241 242 234 239 246 264 285 332 338 343 320 272 236 237 205 227 201 198 203 225 232 230 236 234 243 239 270 242 240 254
301 304 304 307 311 313 314 311 311 303 294 288 291 289 282 283 278 267 263 264 243 283 278 302 182 232 228 230 214 234 252 299 303 297 286 278 253 239 234 210 235 178 206 224 230 227 225 228 225 221 208 216 243 269
300 298 299 301 305 309 312 313 310 304 302 298 291 293 289 274 262 266 261 252 231 243 299 302 313 273 248 234 206 216 230 256 279 280 242 251 260 264 250 255 219 231 213 208 233 216 229 229 224 244 250 252 222 229
309 300 295 296 301 307 311 312 308 305 303 302 292 300 295 280 260 241 254 222 217 208 276 291 324 266 291 192 195 196 205 231 251 269 260 272 278 294 245 240 255 227 235 256 206 314 339 282 263 285 274 239 256 237
320 310 300 299 302 305 305 308 308 310 310 308 307 302 296 276 222 214 9 145 156 157 207 262 265 285 278 153 170 169 208 249 274 278 239 264 254 219 259 246 227 243 343 352 335 313 278 251 254 254 260 248 183 213
324 320 313 309 305 301 303 308 311 312 308 311 310 301 248 189 201 249 229 181 162 167 207 261 257 293 243 165 181 172 144 177 247 259 257 225 233 235 231 247 263 237 71 285 270 249 261 301 295 263 250 201 189 166
333 326 323 315 307 305 312 314 315 315 312 313 314 141 142 187 182 183 193 188 182 212 256 237 245 267 186 228 115 128 90 232 244 238 242 227 229 221 207 246 237 303 244 287 319 297 280 251 262 244 223 197 184 163
339 332 328 317 316 319 317 321 322 317 317 314 158 202 214 140 139 126 120 138 182 216 233 245 127 237 199 170 174 155 183 219 213 214 226 230 236 239 254 220 359 338 304 283 271 262 250 247 228 215 214 194 176 159
340 335 330 329 332 336 332 322 323 328 119 194 202 170 112 139 128 64 132 188 191 236 219 228 181 240 186 168 154 215 350 197 225 203 200 228 224 216 90 336 323 294 271 263 256 262 285 245 207 198 192 185 153 158
342 340 342 352 349 340 332 331 329 325 317 337 321 240 148 172 137 165 195 231 226 254 273 254 141 203 164 117 182 195 232 225 195 291 204 227 191 101 89 315 298 307 291 274 261 255 242 244 215 196 176 174 148 143
347 349 352 349 347 344 339 337 336 312 302 190 208 214 228 113 41 226 192 195 252 247 241 233 177 169 169 211 215 221 231 114 182 215 225 170 106 84 35 3 305 289 291 282 251 243 223 194 181 170 159 135 154 154
351 350 343 349 347 343 341 346 354 16 249 288 20 26 16 329 281 235 235 248 214 239 268 230 255 213 206 201 240 273 27 24 360 257 209 120 56 157 94 78 326 6 347 343 350 89 134 106 87 94 112 130 134 133
351 350 354 344 349 349 349 355 5 337 346 59 65 19 305 260 267 287 99 196 208 227 210 228 239 239 202 239 207 152 209 190 203 273 13 24 23 9 67 61 32 21 1 30 42 73 86 100 106 115 121 131 121 120
358 356 340 343 353 359 4 1 351 337 49 26 72 346 344 12 25 23 14 16 13 355 217 257 340 289 58 325 285 7 267 37 314 308 316 343 14 337 29 62 117 119 40 87 90 95 97 106 113 107 110 114 122 121
22 359 333 351 360 8 11 354 334 53 27 22 22 2 90 60 28 28 21 21 359 26 29 4 35 2 316 350 5 1 352 353 347 333 332 342 345 289 100 85 77 81 97 94 92 87 91 103 112 117 118 119 118 127
341 336 351 359 0 354 23 10 353 35 39 2 18 34 23 68 69 77 72 49 6 8 3 39 10 28 10 329 324 333 356 354 357 349 4 6 0 49 76 84 76 73 89 97 100 103 102 99 96 98 100 99 98 103
319 339 359 2 11 353 357 32 351 40 51 21 29 41 39 32 58 47 37 76 87 45 90 41 40 51 17 346 1 6 9 2 333 5 28 31 22 43 84 82 64 65 54 71 98 90 102 115 132 141 141 137 139 145
341 339 355 19 25 321 36 45 301 16 25 38 24 42 35 40 54 60 38 45 51 50 45 49 36 43 21 43 35 37 25 8 359 49 47 37 27 36 43 62 68 64 60 58 52 83 94 95 94 95 101 104 117 119
355 310 350 27 24 30 24 347 70 22 350 12 69 49 44 38 37 51 56 49 65 57 55 66 79 73 81 91 106 97 76 66 54 52 48 50 39 47 44 46 51 70 63 57 62 62 73 80 101 102 105 110 114 114
323 340 343 353 0 17 65 23 349 32 328 45 68 59 42 50 47 43 40 42 48 55 41 27 26 45 55 35 85 126 120 91 79 82 81 62 55 51 35 36 45 60 60 56 59 56 41 44 52 59 90 139 166 142
340 346 283 283 71 69 167 292 343 45 93 346 59 70 30 49 51 62 47 31 43 37 41 126 321 31 39 48 40 32 36 104 119 111 106 104 114 125 141 132 102 98 127 168 111 112 101 105 122 122 119 111 106 116
347 315 337 22 63 281 231 39 265 29 62 74 78 73 67 33 52 49 48 39 34 76 55 15 35 37 39 37 39 31 17 34 35 100 148 122 67 103 98 106 102 108 129 153 158 160 162 180 156 152 144 135 193 218
314 352 185 270 221 331 9 13 348 31 46 68 57 46 100 171 60 56 43 24 23 35 38 31 41 18 36 24 22 32 18 24 29 31 22 16 67 91 63 25 9 41 100 91 325 95 208 34 254 209 197 214 214 226
35 142 24 338 83 13 1 25 34 10 356 32 53 15 346 75 43 41 61 26 51 54 16 13 21 27 29 27 19 15 10 11 10 19 23 23 16 7 11 41 36 29 354 357 355 348 353 157 180 178 119 293 7 321
263 162 136 58 296 259 269 84 27 44 37 42 14 1 360 72 31 27 63 20 29 38 31 25 23 20 24 18 21 14 12 7 14 349 354 30 40 36 11 10 10 4 337 343 350 342 331 332 333 326 324 322 286 204
336 344 288 265 299 154 310 351 78 27 63 296 300 30 20 61 28 45 43 37 23 30 16 27 36 16 21 10 9 11 16 9 10 5 355 357 8 11 8 348 347 351 327 339 334 321 326 317 318 317 311 300 294 298
306 32 325 270 270 195 247 306 285 100 338 351 33 37 260 111 94 246 57 346 356 356 335 27 19 3 1 2 12 9 30 19 14 12 12 2 357 350 347 346 343 339 334 333 333 323 324 322 313 307 304 298 291 292
69 351 334 3 279 237 127 355 352 22 318 340 346 60 334 300 96 15 318 1 7 73 64 32 332 358 348 2 15 8 32 30 27 18 6 358 354 349 346 341 335 331 338 336 334 330 27 351 4 359 360 349 352 345
87 226 114 328 323 5 334 308 274 253 274 268 272 261 238 208 167 153 1 343 48 82 56 340 335 337 358 13 12 6 1 13 26 11 7 354 355 353 343 335 326 335 336 333 334 334 6 357 354 354 357 359 354 349
219 284 248 263 110 81 277 258 288 267 288 285 237 248 132 249 98 122 1 335 85 65 35 331 339 356 17 354 6 25 6 348 5 356 351 348 347 346 340 333 343 342 337 337 336 336 342 347 10 359 359 1 350 343
258 236 321 302 228 241 116 309 303 286 235 360 22 14 358 5 44 70 42 31 35 6 354 345 342 4 355 328 349 340 349 15 358 339 360 358 354 350 345 352 351 345 349 340 329 336 333 344 347 350 346 353 343 342